Time,TemperatureF,DewpointF,PressureIn,WindDirection,WindDirectionDegrees,WindSpeedMPH,WindSpeedGustMPH,Humidity,HourlyPrecipIn,Conditions,Clouds,dailyrainin,SoftwareType,DateUTC
2013-01-01 00:00:00,47.4,27.1,30.07,SSW,192,0.0,0.0,45,0.00,,,0.00,Wunderground v.1.13,2013-01-01 05:00:00,
2013-01-01 00:11:00,47.3,27.0,30.07,SSW,192,0.0,0.0,45,0.00,,,0.00,Wunderground v.1.13,2013-01-01 05:11:00,
2013-01-01 00:20:00,47.4,27.6,30.05,South,190,1.0,1.0,46,0.00,,,0.00,Wunderground v.1.13,2013-01-01 05:20:00,
2013-01-01 00:30:00,47.4,27.6,30.05,SSW,197,1.0,1.0,46,0.00,,,0.00,Wunderground v.1.13,2013-01-01 05:30:00,
2013-01-01 00:40:00,47.6,26.7,30.05,SSW,197,0.0,0.0,44,0.00,,,0.00,Wunderground v.1.13,2013-01-01 05:40:00,
2013-01-01 00:50:00,47.9,27.0,30.05,SSW,194,1.0,1.0,44,0.00,,,0.00,Wunderground v.1.13,2013-01-01 05:50:00,
2013-01-01 01:01:00,48.2,27.3,30.02,South,186,3.0,3.0,44,0.00,,,0.00,Wunderground v.1.13,2013-01-01 06:01:00,
2013-01-01 01:10:00,48.2,27.3,30.02,South,190,2.0,3.0,44,0.00,,,0.00,Wunderground v.1.13,2013-01-01 06:10:00,
2013-01-01 01:20:00,48.3,27.4,30.01,South,190,2.0,2.0,44,0.00,,,0.00,Wunderground v.1.13,2013-01-01 06:20:00,
2013-01-01 01:30:00,48.2,27.3,30.00,South,190,1.0,2.0,44,0.00,,,0.00,Wunderground v.1.13,2013-01-01 06:30:00,
2013-01-01 01:40:00,48.2,27.8,30.00,SSW,193,1.0,4.0,45,0.00,,,0.00,Wunderground v.1.13,2013-01-01 06:40:00,
2013-01-01 01:51:00,48.0,27.6,30.00,South,186,2.0,4.0,45,0.00,,,0.00,Wunderground v.1.13,2013-01-01 06:51:00,
2013-01-01 02:00:00,47.6,27.8,30.00,South,188,2.0,3.0,46,0.00,,,0.00,Wunderground v.1.13,2013-01-01 07:00:00,
2013-01-01 02:11:00,47.4,28.2,30.00,SSW,194,2.0,2.0,47,0.00,,,0.00,Wunderground v.1.13,2013-01-01 07:11:00,
2013-01-01 02:20:00,47.3,28.1,29.99,South,175,3.0,3.0,47,0.00,,,0.00,Wunderground v.1.13,2013-01-01 07:20:00,
2013-01-01 02:30:00,47.1,28.4,29.99,South,184,1.0,3.0,48,0.00,,,0.00,Wunderground v.1.13,2013-01-01 07:30:00,
2013-01-01 02:40:00,47.0,28.3,29.99,SSW,195,2.0,2.0,48,0.00,,,0.00,Wunderground v.1.13,2013-01-01 07:40:00,
2013-01-01 02:51:00,47.0,28.8,30.00,SSW,195,0.0,0.0,49,0.00,,,0.00,Wunderground v.1.13,2013-01-01 07:51:00,
2013-01-01 03:00:00,46.7,28.5,30.00,SSW,195,0.0,0.0,49,0.00,,,0.00,Wunderground v.1.13,2013-01-01 08:00:00,
2013-01-01 03:11:00,46.8,28.6,30.00,SSW,195,0.0,1.0,49,0.00,,,0.00,Wunderground v.1.13,2013-01-01 08:11:00,
2013-01-01 03:20:00,46.8,29.1,30.00,SSW,195,1.0,1.0,50,0.00,,,0.00,Wunderground v.1.13,2013-01-01 08:20:00,
2013-01-01 03:30:00,47.0,28.8,30.00,SSW,195,1.0,1.0,49,0.00,,,0.00,Wunderground v.1.13,2013-01-01 08:30:00,
2013-01-01 03:40:00,47.0,29.3,30.00,SSW,195,0.0,0.0,50,0.00,,,0.00,Wunderground v.1.13,2013-01-01 08:40:00,
2013-01-01 03:51:00,46.8,29.6,30.00,SSW,195,0.0,0.0,51,0.00,,,0.00,Wunderground v.1.13,2013-01-01 08:51:00,
2013-01-01 04:00:00,46.8,30.1,29.99,SSW,195,0.0,0.0,52,0.00,,,0.00,Wunderground v.1.13,2013-01-01 09:00:00,
2013-01-01 04:11:00,47.0,29.3,29.99,SSW,195,0.0,0.0,50,0.00,,,0.00,Wunderground v.1.13,2013-01-01 09:11:00,
2013-01-01 04:20:00,47.4,30.2,29.98,SSW,195,0.0,0.0,51,0.00,,,0.00,Wunderground v.1.13,2013-01-01 09:20:00,
2013-01-01 04:30:00,47.6,30.3,29.98,SSW,195,0.0,0.0,51,0.00,,,0.00,Wunderground v.1.13,2013-01-01 09:30:00,
2013-01-01 04:41:00,47.7,30.4,29.97,SSW,195,0.0,0.0,51,0.00,,,0.00,Wunderground v.1.13,2013-01-01 09:41:00,
2013-01-01 04:50:00,47.6,30.8,29.98,SSW,195,0.0,0.0,52,0.00,,,0.00,Wunderground v.1.13,2013-01-01 09:50:00,
2013-01-01 05:00:00,47.6,31.8,29.98,SSW,195,0.0,0.0,54,0.00,,,0.00,Wunderground v.1.13,2013-01-01 10:00:00,
2013-01-01 05:11:00,47.7,31.9,29.98,SSW,195,0.0,0.0,54,0.00,,,0.00,Wunderground v.1.13,2013-01-01 10:11:00,
2013-01-01 05:20:00,48.2,32.8,29.98,SSW,195,0.0,0.0,55,0.00,,,0.00,Wunderground v.1.13,2013-01-01 10:20:00,
2013-01-01 05:30:00,48.3,33.3,29.98,SSW,195,1.0,1.0,56,0.00,,,0.00,Wunderground v.1.13,2013-01-01 10:30:00,
2013-01-01 05:40:00,48.5,33.5,29.98,SSW,195,0.0,0.0,56,0.00,,,0.00,Wunderground v.1.13,2013-01-01 10:40:00,
2013-01-01 05:50:00,48.5,33.9,29.98,South,184,0.0,0.0,57,0.00,,,0.00,Wunderground v.1.13,2013-01-01 10:50:00,
2013-01-01 06:01:00,48.6,34.5,29.98,WSW,254,0.0,0.0,58,0.00,,,0.00,Wunderground v.1.13,2013-01-01 11:01:00,
2013-01-01 06:10:00,48.9,34.8,29.98,SSW,198,1.0,1.0,58,0.00,,,0.00,Wunderground v.1.13,2013-01-01 11:10:00,
2013-01-01 06:20:00,49.2,35.5,29.98,WSW,250,1.0,1.0,59,0.00,,,0.00,Wunderground v.1.13,2013-01-01 11:20:00,
2013-01-01 06:31:00,49.2,35.5,29.98,WSW,250,0.0,0.0,59,0.00,,,0.00,Wunderground v.1.13,2013-01-01 11:31:00,
2013-01-01 06:40:00,49.4,36.1,29.98,WSW,250,0.0,0.0,60,0.00,,,0.00,Wunderground v.1.13,2013-01-01 11:40:00,
2013-01-01 06:50:00,49.2,36.3,29.99,WSW,250,0.0,0.0,61,0.00,,,0.00,Wunderground v.1.13,2013-01-01 11:50:00,
2013-01-01 07:00:00,49.4,36.5,29.99,WSW,250,0.0,0.0,61,0.00,,,0.00,Wunderground v.1.13,2013-01-01 12:00:00,
2013-01-01 07:10:00,49.4,36.9,29.99,WSW,250,0.0,0.0,62,0.00,,,0.00,Wunderground v.1.13,2013-01-01 12:10:00,
2013-01-01 07:21:00,49.5,37.0,29.99,WSW,250,0.0,0.0,62,0.00,,,0.00,Wunderground v.1.13,2013-01-01 12:21:00,
2013-01-01 07:30:00,49.6,37.1,29.99,WSW,250,0.0,1.0,62,0.00,,,0.00,Wunderground v.1.13,2013-01-01 12:30:00,
2013-01-01 07:40:00,49.6,37.9,29.99,WSW,250,0.0,0.0,64,0.00,,,0.00,Wunderground v.1.13,2013-01-01 12:40:00,
2013-01-01 07:50:00,49.6,37.9,30.00,WSW,250,0.0,0.0,64,0.00,,,0.00,Wunderground v.1.13,2013-01-01 12:50:00,
2013-01-01 08:01:00,49.6,38.3,30.00,WSW,250,0.0,0.0,65,0.00,,,0.00,Wunderground v.1.13,2013-01-01 13:01:00,
2013-01-01 08:10:00,49.6,38.3,30.00,NW,307,1.0,1.0,65,0.00,,,0.00,Wunderground v.1.13,2013-01-01 13:10:00,
2013-01-01 08:21:00,49.6,37.9,30.01,NW,312,1.0,1.0,64,0.00,,,0.00,Wunderground v.1.13,2013-01-01 13:21:00,
2013-01-01 08:30:00,49.6,38.3,30.01,NW,312,0.0,0.0,65,0.00,,,0.00,Wunderground v.1.13,2013-01-01 13:30:00,
2013-01-01 08:41:00,49.4,38.1,30.01,NW,312,0.0,0.0,65,0.00,,,0.00,Wunderground v.1.13,2013-01-01 13:41:00,
2013-01-01 08:50:00,49.1,39.0,30.01,NW,312,0.0,0.0,68,0.00,,,0.00,Wunderground v.1.13,2013-01-01 13:50:00,
2013-01-01 09:00:00,48.5,39.9,30.00,NW,312,0.0,0.0,72,0.00,,,0.00,Wunderground v.1.13,2013-01-01 14:00:00,
2013-01-01 09:10:00,47.4,41.5,30.00,NW,312,0.0,0.0,80,0.00,,,0.00,Wunderground v.1.13,2013-01-01 14:10:00,
2013-01-01 09:20:00,46.8,41.6,30.00,SSW,199,1.0,2.0,82,0.00,,,0.00,Wunderground v.1.13,2013-01-01 14:20:00,
2013-01-01 09:31:00,47.0,42.4,30.01,SSW,199,0.0,0.0,84,0.00,,,0.01,Wunderground v.1.13,2013-01-01 14:31:00,
2013-01-01 09:40:00,47.0,43.0,30.01,SSW,199,0.0,0.0,86,0.05,,,0.02,Wunderground v.1.13,2013-01-01 14:40:00,
2013-01-01 09:50:00,46.7,43.3,30.01,SSW,199,0.0,0.0,88,0.05,,,0.02,Wunderground v.1.13,2013-01-01 14:50:00,
2013-01-01 10:00:00,46.4,43.3,30.01,SSW,199,0.0,0.0,89,0.05,,,0.03,Wunderground v.1.13,2013-01-01 15:00:00,
2013-01-01 10:10:00,46.2,43.4,30.02,SSW,199,0.0,0.0,90,0.00,,,0.03,Wunderground v.1.13,2013-01-01 15:10:00,
2013-01-01 10:21:00,46.4,43.9,30.01,SSW,199,0.0,0.0,91,0.00,,,0.04,Wunderground v.1.13,2013-01-01 15:21:00,
2013-01-01 10:31:00,46.7,44.5,30.02,SSW,199,0.0,0.0,92,0.04,,,0.05,Wunderground v.1.13,2013-01-01 15:31:00,
2013-01-01 10:40:00,46.7,44.5,30.02,SSW,199,0.0,0.0,92,0.04,,,0.05,Wunderground v.1.13,2013-01-01 15:40:00,
2013-01-01 10:50:00,46.8,44.6,30.00,SSW,199,0.0,0.0,92,0.00,,,0.05,Wunderground v.1.13,2013-01-01 15:50:00,
2013-01-01 11:01:00,47.1,44.9,30.01,SSW,199,0.0,0.0,92,0.00,,,0.05,Wunderground v.1.13,2013-01-01 16:01:00,
2013-01-01 11:10:00,47.1,45.2,30.01,SSW,199,0.0,3.0,93,0.00,,,0.05,Wunderground v.1.13,2013-01-01 16:10:00,
2013-01-01 11:20:00,47.9,46.0,30.00,SSW,199,0.0,0.0,93,0.00,,,0.05,Wunderground v.1.13,2013-01-01 16:20:00,
2013-01-01 11:30:00,48.2,46.6,29.99,SSW,192,1.0,4.0,94,0.00,,,0.05,Wunderground v.1.13,2013-01-01 16:30:00,
2013-01-01 11:40:00,48.3,46.7,29.99,SSW,192,1.0,1.0,94,0.00,,,0.05,Wunderground v.1.13,2013-01-01 16:40:00,
2013-01-01 11:51:00,48.6,47.0,29.98,SSW,192,0.0,0.0,94,0.00,,,0.05,Wunderground v.1.13,2013-01-01 16:51:00,
2013-01-01 12:01:00,49.1,47.7,29.97,South,188,1.0,1.0,95,0.00,,,0.05,Wunderground v.1.13,2013-01-01 17:01:00,
2013-01-01 12:11:00,49.4,48.0,29.97,South,185,1.0,1.0,95,0.00,,,0.05,Wunderground v.1.13,2013-01-01 17:11:00,
2013-01-01 12:20:00,49.4,48.0,29.97,South,185,0.0,0.0,95,0.00,,,0.05,Wunderground v.1.13,2013-01-01 17:20:00,
2013-01-01 12:30:00,49.5,48.1,29.96,South,184,1.0,3.0,95,0.00,,,0.05,Wunderground v.1.13,2013-01-01 17:30:00,
2013-01-01 12:40:00,49.2,47.8,29.96,South,184,2.0,2.0,95,0.00,,,0.05,Wunderground v.1.13,2013-01-01 17:40:00,
2013-01-01 12:51:00,49.1,47.7,29.96,SSW,192,1.0,3.0,95,0.00,,,0.05,Wunderground v.1.13,2013-01-01 17:51:00,
2013-01-01 13:00:00,48.8,47.2,29.95,SSW,192,0.0,0.0,94,0.00,,,0.05,Wunderground v.1.13,2013-01-01 18:00:00,
2013-01-01 13:11:00,48.9,47.5,29.95,SSW,192,1.0,1.0,95,0.00,,,0.06,Wunderground v.1.13,2013-01-01 18:11:00,
2013-01-01 13:20:00,48.9,47.5,29.94,SSW,192,0.0,1.0,95,0.00,,,0.06,Wunderground v.1.13,2013-01-01 18:20:00,
2013-01-01 13:30:00,49.2,47.8,29.94,SSW,192,0.0,0.0,95,0.00,,,0.06,Wunderground v.1.13,2013-01-01 18:30:00,
2013-01-01 13:41:00,49.1,47.7,29.93,SSW,195,1.0,1.0,95,0.00,,,0.06,Wunderground v.1.13,2013-01-01 18:41:00,
2013-01-01 13:50:00,49.1,47.7,29.94,South,184,0.0,3.0,95,0.00,,,0.07,Wunderground v.1.13,2013-01-01 18:50:00,
2013-01-01 14:00:00,48.8,47.7,29.93,South,187,1.0,1.0,96,0.00,,,0.07,Wunderground v.1.13,2013-01-01 19:00:00,
2013-01-01 14:10:00,48.8,47.7,29.93,South,190,0.0,0.0,96,0.05,,,0.08,Wunderground v.1.13,2013-01-01 19:10:00,
2013-01-01 14:20:00,48.6,47.5,29.92,South,180,0.0,3.0,96,0.03,,,0.09,Wunderground v.1.13,2013-01-01 19:20:00,
2013-01-01 14:30:00,48.6,47.5,29.92,South,190,0.0,0.0,96,0.05,,,0.10,Wunderground v.1.13,2013-01-01 19:30:00,
2013-01-01 14:40:00,48.6,47.5,29.92,South,185,1.0,1.0,96,0.05,,,0.10,Wunderground v.1.13,2013-01-01 19:40:00,
2013-01-01 14:50:00,48.8,48.0,29.91,South,176,1.0,2.0,97,0.05,,,0.11,Wunderground v.1.13,2013-01-01 19:50:00,
2013-01-01 15:00:00,48.8,48.0,29.91,South,176,0.0,0.0,97,0.05,,,0.12,Wunderground v.1.13,2013-01-01 20:00:00,
2013-01-01 15:10:00,48.9,48.1,29.89,South,174,0.0,1.0,97,0.00,,,0.12,Wunderground v.1.13,2013-01-01 20:10:00,
2013-01-01 15:21:00,49.1,48.3,29.90,South,174,0.0,2.0,97,0.00,,,0.13,Wunderground v.1.13,2013-01-01 20:21:00,
2013-01-01 15:30:00,49.1,48.3,29.90,South,189,1.0,4.0,97,0.00,,,0.13,Wunderground v.1.13,2013-01-01 20:30:00,
2013-01-01 15:40:00,49.2,48.4,29.90,South,189,0.0,0.0,97,0.00,,,0.13,Wunderground v.1.13,2013-01-01 20:40:00,
2013-01-01 15:50:00,49.1,48.3,29.90,South,189,0.0,1.0,97,0.00,,,0.14,Wunderground v.1.13,2013-01-01 20:50:00,
2013-01-01 16:01:00,49.1,48.3,29.91,South,190,1.0,1.0,97,0.00,,,0.14,Wunderground v.1.13,2013-01-01 21:01:00,
2013-01-01 16:10:00,49.2,48.4,29.91,South,190,0.0,0.0,97,0.00,,,0.15,Wunderground v.1.13,2013-01-01 21:10:00,
2013-01-01 16:21:00,49.4,48.6,29.91,South,190,0.0,0.0,97,0.04,,,0.16,Wunderground v.1.13,2013-01-01 21:21:00,
2013-01-01 16:30:00,49.4,48.6,29.91,South,190,0.0,0.0,97,0.04,,,0.16,Wunderground v.1.13,2013-01-01 21:30:00,
2013-01-01 16:40:00,49.4,48.6,29.91,South,190,0.0,0.0,97,0.00,,,0.16,Wunderground v.1.13,2013-01-01 21:40:00,
2013-01-01 16:50:00,49.4,48.6,29.91,South,190,0.0,0.0,97,0.00,,,0.17,Wunderground v.1.13,2013-01-01 21:50:00,
2013-01-01 17:01:00,49.4,48.6,29.91,South,190,0.0,0.0,97,0.04,,,0.18,Wunderground v.1.13,2013-01-01 22:01:00,
2013-01-01 17:10:00,49.5,48.7,29.91,South,190,0.0,0.0,97,0.04,,,0.18,Wunderground v.1.13,2013-01-01 22:10:00,
2013-01-01 17:20:00,49.4,48.6,29.92,South,190,0.0,0.0,97,0.00,,,0.18,Wunderground v.1.13,2013-01-01 22:20:00,
2013-01-01 17:30:00,49.4,48.6,29.92,South,190,0.0,0.0,97,0.00,,,0.18,Wunderground v.1.13,2013-01-01 22:30:00,
2013-01-01 17:40:00,49.4,48.6,29.92,South,190,0.0,0.0,97,0.00,,,0.19,Wunderground v.1.13,2013-01-01 22:40:00,
2013-01-01 17:51:00,49.5,49.0,29.92,South,190,0.0,0.0,98,0.00,,,0.19,Wunderground v.1.13,2013-01-01 22:51:00,
2013-01-01 18:01:00,49.6,49.1,29.92,South,190,0.0,0.0,98,0.00,,,0.19,Wunderground v.1.13,2013-01-01 23:01:00,
2013-01-01 18:11:00,49.6,49.1,29.92,South,190,0.0,0.0,98,0.00,,,0.19,Wunderground v.1.13,2013-01-01 23:11:00,
2013-01-01 18:20:00,49.5,49.0,29.90,South,190,0.0,0.0,98,0.00,,,0.19,Wunderground v.1.13,2013-01-01 23:20:00,
2013-01-01 18:30:00,49.6,49.1,29.90,South,190,0.0,0.0,98,0.00,,,0.19,Wunderground v.1.13,2013-01-01 23:30:00,
2013-01-01 18:40:00,49.5,49.0,29.90,South,190,0.0,0.0,98,0.00,,,0.19,Wunderground v.1.13,2013-01-01 23:40:00,
2013-01-01 18:51:00,49.5,49.0,29.89,South,190,0.0,0.0,98,0.00,,,0.19,Wunderground v.1.13,2013-01-01 23:51:00,
2013-01-01 19:00:00,49.6,49.1,29.89,South,190,0.0,0.0,98,0.00,,,0.19,Wunderground v.1.13,2013-01-02 00:00:00,
2013-01-01 19:10:00,49.8,49.3,29.89,South,190,0.0,0.0,98,0.00,,,0.19,Wunderground v.1.13,2013-01-02 00:10:00,
2013-01-01 19:20:00,49.8,49.3,29.90,South,190,0.0,0.0,98,0.00,,,0.19,Wunderground v.1.13,2013-01-02 00:20:00,
2013-01-01 19:30:00,49.8,49.3,29.90,South,190,0.0,0.0,98,0.00,,,0.19,Wunderground v.1.13,2013-01-02 00:30:00,
2013-01-01 19:40:00,49.8,49.3,29.91,South,190,0.0,0.0,98,0.00,,,0.19,Wunderground v.1.13,2013-01-02 00:40:00,
2013-01-01 19:50:00,49.6,49.1,29.92,South,190,0.0,0.0,98,0.00,,,0.19,Wunderground v.1.13,2013-01-02 00:50:00,
2013-01-01 20:00:00,49.8,49.3,29.92,South,190,0.0,0.0,98,0.00,,,0.20,Wunderground v.1.13,2013-01-02 01:00:00,
2013-01-01 20:10:00,49.9,49.4,29.93,South,190,0.0,0.0,98,0.00,,,0.20,Wunderground v.1.13,2013-01-02 01:10:00,
2013-01-01 20:20:00,49.9,49.4,29.91,South,190,0.0,0.0,98,0.00,,,0.21,Wunderground v.1.13,2013-01-02 01:20:00,
2013-01-01 20:30:00,49.9,49.4,29.90,South,190,0.0,0.0,98,0.00,,,0.21,Wunderground v.1.13,2013-01-02 01:30:00,
2013-01-01 20:41:00,49.8,49.3,29.90,South,190,0.0,0.0,98,0.00,,,0.22,Wunderground v.1.13,2013-01-02 01:41:00,
2013-01-01 20:50:00,49.8,49.3,29.89,South,190,0.0,0.0,98,0.00,,,0.22,Wunderground v.1.13,2013-01-02 01:50:00,
2013-01-01 21:00:00,49.6,49.1,29.89,South,190,0.0,0.0,98,0.00,,,0.22,Wunderground v.1.13,2013-01-02 02:00:00,
2013-01-01 21:10:00,49.6,49.1,29.90,South,190,0.0,0.0,98,0.00,,,0.23,Wunderground v.1.13,2013-01-02 02:10:00,
2013-01-01 21:20:00,49.8,49.3,29.89,South,190,0.0,0.0,98,0.00,,,0.23,Wunderground v.1.13,2013-01-02 02:20:00,
2013-01-01 21:31:00,49.6,49.1,29.89,South,190,0.0,0.0,98,0.00,,,0.23,Wunderground v.1.13,2013-01-02 02:31:00,
2013-01-01 21:40:00,49.5,49.0,29.89,South,190,0.0,0.0,98,0.00,,,0.23,Wunderground v.1.13,2013-01-02 02:40:00,
2013-01-01 21:50:00,49.5,49.0,29.89,South,190,0.0,0.0,98,0.00,,,0.24,Wunderground v.1.13,2013-01-02 02:50:00,
2013-01-01 22:00:00,49.5,49.0,29.89,N/A,-737280,0.0,0.0,98,0.03,,,0.26,Wunderground v.1.13,2013-01-02 03:00:00,
2013-01-01 22:11:00,49.5,49.0,29.89,South,190,0.0,0.0,98,0.09,,,0.26,Wunderground v.1.13,2013-01-02 03:11:00,
2013-01-01 22:20:00,49.5,49.2,29.88,South,190,0.0,0.0,99,0.06,,,0.27,Wunderground v.1.13,2013-01-02 03:20:00,
2013-01-01 22:30:00,49.5,49.2,29.88,South,190,0.0,0.0,99,0.06,,,0.28,Wunderground v.1.13,2013-01-02 03:30:00,
2013-01-01 22:40:00,49.5,49.2,29.87,South,190,0.0,0.0,99,0.00,,,0.28,Wunderground v.1.13,2013-01-02 03:40:00,
2013-01-01 22:51:00,49.4,49.1,29.89,South,190,0.0,0.0,99,0.00,,,0.29,Wunderground v.1.13,2013-01-02 03:51:00,
2013-01-01 23:00:00,49.4,49.1,29.89,South,190,0.0,0.0,99,0.07,,,0.30,Wunderground v.1.13,2013-01-02 04:00:00,
2013-01-01 23:10:00,49.4,49.1,29.89,N/A,-737280,0.0,0.0,99,0.04,,,0.31,Wunderground v.1.13,2013-01-02 04:10:00,
2013-01-01 23:21:00,49.4,49.1,29.87,South,190,0.0,0.0,99,0.06,,,0.32,Wunderground v.1.13,2013-01-02 04:21:00,
2013-01-01 23:30:00,49.2,48.9,29.88,South,190,0.0,0.0,99,0.05,,,0.33,Wunderground v.1.13,2013-01-02 04:30:00,
2013-01-01 23:40:00,49.2,48.9,29.88,South,190,0.0,0.0,99,0.08,,,0.34,Wunderground v.1.13,2013-01-02 04:40:00,
2013-01-01 23:51:00,49.2,48.9,29.88,South,190,0.0,0.0,99,0.09,,,0.35,Wunderground v.1.13,2013-01-02 04:51:00,